Meacham, OR

6:25 AM PST on December 04, 2016 (GMT -0800)
Meacham

Weather History for KMEH - November, 2012

Change the Weather History Date:

Monday, November 26, 2012

  Actual Average Record
Temperature  
Mean Temperature 28 °F -  
Max Temperature 37 °F 38 °F 55 °F (2014)
Min Temperature 19 °F 23 °F -2 °F (2015)
Degree Days  
Heating Degree Days 37    
Moisture  
Dew Point 24 °F    
Average Humidity 81    
Maximum Humidity 92    
Minimum Humidity 62    
Precipitation  
Precipitation 0.00 in - - ()
Sea Level Pressure  
Sea Level Pressure 30.22 in    
Wind  
Wind Speed 0 mph (North)    
Max Wind Speed 4 mph    
Max Gust Speed -    
Visibility 10 miles    
Events      
Averages and records for this station are not official NWS values.
T = Trace of Precipitation, MM = Missing Value Source: NWS Daily Summary

Daily Weather History Graph

Daily Weather History Graph

Search for Another Location

Airport or City:

Trip Planner

Search our weather history database for the weather conditions in past years. The results will help you decide how hot, cold, wet, or windy it might be!

Date:

Astronomy

Nov. 26, 2012 Rise Set
Actual Time 7:08 AM PST 4:14 PM PST
Civil Twilight 6:34 AM PST 4:47 PM PST
Nautical Twilight 5:58 AM PST 5:23 PM PST
Astronomical Twilight 5:22 AM PST 5:59 PM PST
Moon 3:11 PM PST (11/26) 5:19 AM PST (11/26)
Length of Visible Light 10h 12m
Length of Day
9h 05m
Waxing Gibbous, 97% of the Moon is Illuminated
Nov 26
Waxing Gibbous
Nov 28
Full
Dec 6
Last Quarter
Dec 13
New
Dec 19
First Quarter

Hourly Weather History & Observations

Time (PST) Temp. Windchill Dew Point Humidity Pressure Visibility Wind Dir Wind Speed Gust Speed Precip Events Conditions
12:56 AM 19.9 °F - 18.0 °F 92% 30.29 in 10.0 mi Calm Calm - N/A   Clear
1:56 AM 19.9 °F - 17.1 °F 89% 30.29 in 10.0 mi Calm Calm - N/A   Clear
2:56 AM 19.9 °F - 18.0 °F 92% 30.29 in 10.0 mi Calm Calm - N/A   Clear
3:56 AM 21.0 °F - 19.0 °F 92% 30.26 in 10.0 mi Calm Calm - N/A   Clear
4:56 AM 21.9 °F - 19.9 °F 92% 30.25 in 10.0 mi Calm Calm - N/A   Clear
5:56 AM 25.0 °F - 21.9 °F 88% 30.24 in 10.0 mi Calm Calm - N/A   Clear
6:56 AM 25.0 °F - 21.9 °F 88% 30.25 in 10.0 mi Calm Calm - N/A   Clear
7:56 AM 25.0 °F - 21.9 °F 88% 30.26 in 10.0 mi Calm Calm - N/A   Clear
8:56 AM 28.0 °F - 25.0 °F 88% 30.25 in 10.0 mi Calm Calm - N/A   Clear
9:56 AM 30.9 °F - 26.1 °F 82% 30.26 in 10.0 mi Calm Calm - N/A   Clear
10:56 AM 34.0 °F - 27.0 °F 75% 30.24 in 10.0 mi Calm Calm - N/A   Clear
11:56 AM 36.0 °F - 27.0 °F 70% 30.21 in 10.0 mi Calm Calm - N/A   Clear
12:56 PM 37.0 °F 34.5 °F 25.0 °F 62% 30.19 in 10.0 mi Variable 3.5 mph - N/A   Clear
1:56 PM 37.0 °F - 27.0 °F 67% 30.17 in 10.0 mi Calm Calm - N/A   Clear
2:56 PM 36.0 °F - 27.0 °F 70% 30.17 in 10.0 mi Calm Calm - N/A   Clear
3:56 PM 34.0 °F - 26.1 °F 73% 30.17 in 10.0 mi Calm Calm - N/A   Clear
4:56 PM 33.1 °F 30.0 °F 26.1 °F 75% 30.17 in 10.0 mi Variable 3.5 mph - N/A   Clear
5:56 PM 33.1 °F - 25.0 °F 72% 30.18 in 10.0 mi Calm Calm - N/A   Clear
6:56 PM 32.0 °F - 25.0 °F 75% 30.19 in 10.0 mi Calm Calm - N/A   Clear
7:56 PM 30.0 °F - 25.0 °F 82% 30.20 in 10.0 mi Calm Calm - N/A   Clear
8:56 PM 30.0 °F - 25.0 °F 82% 30.21 in 10.0 mi Calm Calm - N/A   Clear
9:56 PM 30.0 °F - 25.0 °F 82% 30.20 in 10.0 mi Calm Calm - N/A   Clear
10:56 PM 30.0 °F - 25.0 °F 82% 30.20 in 10.0 mi Calm Calm - N/A   Clear
11:56 PM 28.9 °F - 25.0 °F 85% 30.19 in 10.0 mi Calm Calm - N/A   Clear